GW6388 Weather Reports


time (UTC)temp
F
wind
direction
speed
knots
gust
knots
rain 1hr
in
rain 24hr
in
rain mn
in
humidity
%
barometer
mb
20260503214144 60 9 4.3 7.0 0.00 0.00 0.00 33 1096.2
20260503213643 60 119 7.8 11.3 0.00 0.00 0.00 34 1095.9
20260503213139 59 325 3.5 5.2 0.00 0.00 0.00 36 1096.0
20260503212636 59 303 0.9 7.8 0.00 0.00 0.00 36 1095.8
20260503212134 59 295 5.2 7.0 0.00 0.00 0.00 35 1096.2
20260503211633 59 206 4.3 9.6 0.00 0.00 0.00 34 1096.0
20260503211133 60 315 7.0 11.3 0.00 0.00 0.00 34 1096.1
20260503210629 59 29 0.9 7.0 0.00 0.00 0.00 36 1096.0
20260503210126 59 260 7.0 8.7 0.00 0.00 0.00 34 1096.1
20260503205622 59 253 7.0 8.7 0.00 0.00 0.00 35 1096.2
20260503205118 59 287 5.2 8.7 0.00 0.00 0.00 35 1096.3
20260503204615 59 234 5.2 7.0 0.00 0.00 0.00 36 1096.3
20260503204113 59 295 4.3 8.7 0.00 0.00 0.00 34 1096.3
20260503203610 59 314 2.6 6.1 0.00 0.00 0.00 35 1096.7
20260503203107 59 233 4.3 5.2 0.00 0.00 0.00 36 1096.4
20260503202604 60 317 6.1 9.6 0.00 0.00 0.00 34 1096.4
20260503202102 59 227 4.3 9.6 0.00 0.00 0.00 35 1096.8
20260503201600 59 161 5.2 8.7 0.00 0.00 0.00 36 1096.7
20260503201057 58 356 3.5 6.1 0.00 0.00 0.00 36 1096.7
20260503200553 58 69 1.7 7.0 0.00 0.00 0.00 37 1096.9
20260503200050 59 226 7.8 9.6 0.00 0.00 0.00 35 1096.8
20260503195547 59 260 5.2 8.7 0.00 0.00 0.00 34 1096.9
20260503195044 58 294 4.3 14.8 0.00 0.00 0.00 36 1097.2
20260503194541 58 332 0.9 8.7 0.00 0.00 0.00 35 1097.3
20260503194041 59 306 3.5 11.3 0.00 0.00 0.00 35 1097.2
20260503193538 58 267 5.2 13.0 0.00 0.00 0.00 34 1097.3
20260503193033 57 357 1.7 6.1 0.00 0.00 0.00 35 1097.3
20260503192530 59 222 7.0 11.3 0.00 0.00 0.00 34 1097.4
20260503192025 58 332 4.3 8.7 0.00 0.00 0.00 37 1097.5
20260503191522 58 274 7.0 8.7 0.00 0.00 0.00 34 1097.5
20260503191019 58 153 0.9 5.2 0.00 0.00 0.00 38 1097.8
20260503190516 59 233 7.0 12.2 0.00 0.00 0.00 36 1097.8
20260503190014 58 152 5.2 8.7 0.00 0.00 0.00 35 1097.6
20260503185510 59 255 6.1 13.0 0.00 0.00 0.00 36 1097.9
20260503185009 58 249 3.5 11.3 0.00 0.00 0.00 37 1097.9
20260503184506 57 321 6.1 15.6 0.00 0.00 0.00 37 1098.1
20260503184002 57 332 7.0 9.6 0.00 0.00 0.00 37 1098.4
20260503183459 57 272 7.8 12.2 0.00 0.00 0.00 37 1098.1
20260503182956 56 184 6.1 8.7 0.00 0.00 0.00 39 1098.2
20260503182455 56 293 5.2 9.6 0.00 0.00 0.00 39 1098.4
20260503181952 56 268 0.9 6.1 0.00 0.00 0.00 39 1098.4
20260503181449 57 146 8.7 12.2 0.00 0.00 0.00 38 1098.3
20260503180945 58 337 0.9 7.8 0.00 0.00 0.00 36 1098.3
20260503180443 58 179 3.5 7.0 0.00 0.00 0.00 37 1098.5
20260503175940 56 166 2.6 3.5 0.00 0.00 0.00 37 1098.3
20260503175438 56 282 12.2 18.2 0.00 0.00 0.00 36 1098.7
20260503174933 56 228 2.6 7.8 0.00 0.00 0.00 37 1098.7
20260503174432 56 278 4.3 7.0 0.00 0.00 0.00 40 1098.6
20260503173932 57 207 6.1 7.8 0.00 0.00 0.00 37 1098.7
20260503173428 56 197 4.3 6.1 0.00 0.00 0.00 37 1099.0
20260503172925 54 284 3.5 5.2 0.00 0.00 0.00 39 1099.0
20260503172422 55 207 11.3 13.0 0.00 0.00 0.00 36 1099.0
20260503171918 56 181 2.6 11.3 0.00 0.00 0.00 40 1099.1
20260503171415 55 332 10.4 13.9 0.00 0.00 0.00 36 1099.0
20260503170913 56 257 11.3 13.9 0.00 0.00 0.00 36 1099.2
20260503170409 55 95 3.5 7.8 0.00 0.00 0.00 37 1099.3
20260503150801 51 225 2.6 7.0 0.00 0.00 0.00 40 1100.1
20260503150257 51 295 3.5 6.1 0.00 0.00 0.00 41 1100.0
20260503140222 48 281 3.5 7.0 0.00 0.00 0.00 52 1100.4
20260503131151 44 285 6.1 8.7 0.00 0.00 0.00 62 1100.8
20260503130648 44 5 2.6 7.0 0.00 0.00 0.00 65 1100.9
20260503130146 44 277 4.3 7.0 0.00 0.00 0.00 65 1100.8
20260503120112 36 36 0.0 0.9 0.00 0.00 0.00 96 1100.4
20260503110539 31 27 0.0 0.0 0.00 0.00 0.00 96 1100.0
20260503090426 32 36 0.0 0.0 0.00 0.00 0.00 97 1099.3
20260503081352 32 17 0.0 0.0 0.00 0.00 0.00 96 1099.1
20260503080849 33 17 0.0 0.0 0.00 0.00 0.00 95 1099.5
20260503080346 33 12 0.0 0.0 0.00 0.00 0.00 95 1099.3
20260503072823 33 19 0.0 0.0 0.00 0.00 0.00 96 1099.1
20260503072319 33 19 0.0 0.0 0.00 0.00 0.00 96 1099.0
20260503071815 33 19 0.0 0.0 0.00 0.00 0.00 96 1099.2
20260503071313 33 19 0.0 0.0 0.00 0.00 0.00 96 1099.1
20260503070809 33 18 0.0 0.0 0.00 0.00 0.00 96 1098.9
20260503070307 33 18 0.0 0.0 0.00 0.00 0.00 96 1099.0
20260503060238 32 18 0.0 0.0 0.00 0.00 0.00 96 1099.1
20260503054725 33 17 0.0 0.0 0.00 0.00 0.00 96 1099.2
20260503054222 33 18 0.0 0.0 0.00 0.00 0.00 96 1099.2
20260503053720 32 21 0.0 0.0 0.00 0.00 0.00 95 1099.3
20260503053219 33 21 0.0 0.0 0.00 0.00 0.00 95 1099.3
20260503052714 33 21 0.0 0.0 0.00 0.00 0.00 95 1099.5
20260503052211 32 21 0.0 0.0 0.00 0.00 0.00 95 1099.3
20260503051706 32 20 0.0 0.9 0.00 0.00 0.00 95 1099.3
20260503051204 33 22 0.0 0.0 0.00 0.00 0.00 95 1099.3
20260503050700 33 20 0.0 0.0 0.00 0.00 0.00 95 1099.3
20260503050157 33 19 0.0 0.0 0.00 0.00 0.00 95 1099.4
20260503045655 33 10 0.0 0.9 0.00 0.00 0.00 95 1099.6
20260503045152 32 21 0.0 0.0 0.00 0.00 0.00 95 1099.3
20260503044648 32 20 0.0 0.0 0.00 0.00 0.00 95 1099.7
20260503044146 32 20 0.0 0.0 0.00 0.00 0.00 95 1099.6
20260503043642 32 20 0.0 0.0 0.00 0.00 0.00 94 1099.5
20260503043139 33 20 0.0 0.0 0.00 0.00 0.00 94 1099.4
20260503042636 34 0 0.9 0.9 0.00 0.00 0.00 95 1099.7
20260503042132 33 19 0.0 0.0 0.00 0.00 0.00 96 1099.5
20260503041629 32 12 0.0 0.0 0.00 0.00 0.00 95 1099.6
20260503041126 32 20 0.0 0.0 0.00 0.00 0.00 94 1099.6
20260503040624 33 15 0.0 0.0 0.00 0.00 0.00 94 1099.7
20260503040121 32 17 0.0 0.0 0.00 0.02 0.02 94 1099.7
20260503035617 32 12 0.0 0.0 0.00 0.02 0.02 94 1099.4
20260503035115 32 16 0.0 0.0 0.00 0.02 0.02 94 1099.6
20260503034612 32 18 0.0 0.9 0.00 0.02 0.02 93 1099.8
20260503034109 32 7 0.9 0.9 0.00 0.02 0.02 93 1099.6
20260503033607 33 7 0.0 0.9 0.00 0.02 0.02 93 1099.6
20260503033104 33 8 0.0 0.0 0.00 0.02 0.02 92 1099.6
20260503032602 33 358 0.9 0.9 0.00 0.02 0.02 92 1099.7
20260503032100 33 14 0.9 0.9 0.00 0.02 0.02 91 1099.6
20260503031558 33 12 0.0 0.9 0.00 0.02 0.02 90 1099.6
20260503031055 33 5 0.9 0.9 0.00 0.02 0.02 89 1099.6
20260503030550 35 16 0.0 0.9 0.00 0.02 0.02 88 1099.6
20260503030048 35 356 0.9 0.9 0.00 0.02 0.02 88 1099.7
20260503025545 35 359 0.9 0.9 0.00 0.02 0.02 86 1099.6
20260503025043 36 0 0.9 0.9 0.00 0.02 0.02 86 1099.8
20260503024538 36 342 0.0 0.9 0.00 0.02 0.02 86 1099.6
20260503024036 36 24 0.0 0.9 0.00 0.02 0.02 86 1099.6
20260503023532 37 2 0.0 0.9 0.00 0.02 0.02 85 1100.0
20260503023030 36 14 0.0 0.9 0.00 0.02 0.02 85 1099.7
20260503022526 37 10 0.0 0.9 0.00 0.02 0.02 84 1100.1
20260503022021 37 16 0.0 0.9 0.00 0.02 0.02 84 1099.8
20260503021518 37 17 0.9 0.9 0.00 0.02 0.02 83 1099.7
20260503021015 38 357 0.9 0.9 0.00 0.02 0.02 81 1099.6
20260503020512 39 17 0.0 0.0 0.00 0.02 0.02 82 1099.8
20260503020009 38 16 0.0 0.0 0.00 0.02 0.02 82 1099.7
20260503015505 38 15 0.0 0.0 0.00 0.02 0.02 80 1099.6
20260503015002 39 23 0.0 0.0 0.00 0.02 0.02 79 1099.7
20260503014458 40 19 0.0 0.0 0.00 0.02 0.02 78 1099.7
20260503013956 40 18 0.0 0.0 0.00 0.02 0.02 77 1099.8
20260503013453 40 17 0.0 0.0 0.00 0.02 0.02 75 1099.8
20260503012950 40 17 0.0 0.0 0.00 0.02 0.02 71 1100.2
20260503012449 41 19 0.0 0.0 0.00 0.02 0.02 71 1099.7
20260503011944 41 14 0.9 0.9 0.00 0.02 0.02 71 1099.7
20260503011441 41 14 0.0 1.7 0.00 0.02 0.02 69 1099.5
20260503010938 41 1 0.0 0.9 0.00 0.02 0.02 70 1099.5
20260503010435 41 17 0.0 0.0 0.00 0.02 0.02 70 1099.5
20260503005932 41 11 0.9 1.7 0.00 0.02 0.02 70 1099.5
20260503005430 41 17 0.0 0.9 0.00 0.02 0.02 70 1099.4
20260503004926 41 17 0.0 0.0 0.00 0.02 0.02 70 1099.6
20260503004423 41 7 0.0 1.7 0.00 0.02 0.02 69 1099.5
20260503003921 41 11 0.0 1.7 0.00 0.02 0.02 69 1099.3
20260503003417 41 315 0.9 1.7 0.00 0.02 0.02 70 1099.3
20260503002915 41 18 0.0 0.9 0.00 0.02 0.02 70 1099.4
20260503002412 41 8 0.9 2.6 0.00 0.02 0.02 70 1099.3
20260503001908 41 19 0.9 1.7 0.00 0.02 0.02 70 1099.0
20260503001404 42 9 0.0 0.9 0.00 0.02 0.02 69 1099.3
20260503000902 42 8 0.0 0.9 0.00 0.02 0.02 70 1099.3
20260503000400 42 347 1.7 1.7 0.00 0.02 0.02 67 1099.0
20260502235856 42 15 0.0 0.9 0.00 0.02 0.02 68 1099.0
20260502235353 42 10 0.9 0.9 0.00 0.02 0.02 66 1098.9
20260502234850 42 355 0.9 1.7 0.00 0.02 0.02 65 1099.1
20260502234347 42 303 2.6 2.6 0.00 0.02 0.02 66 1099.1
20260502233844 42 5 0.9 1.7 0.00 0.02 0.02 66 1099.0
20260502233339 42 5 0.9 2.6 0.00 0.02 0.02 65 1099.0
20260502232837 42 340 1.7 2.6 0.00 0.02 0.02 64 1099.1
20260502232333 42 12 1.7 3.5 0.00 0.02 0.02 64 1098.9
20260502231829 42 314 6.1 7.8 0.00 0.02 0.02 63 1098.7
20260502231328 42 347 3.5 5.2 0.00 0.02 0.02 63 1098.9
20260502230825 42 309 2.6 3.5 0.00 0.02 0.02 64 1098.9
20260502230323 42 14 0.9 3.5 0.00 0.02 0.02 64 1099.0
20260502225820 43 303 3.5 6.1 0.00 0.02 0.02 65 1099.0
20260502225317 43 344 1.7 2.6 0.00 0.02 0.02 66 1099.0
20260502224813 43 5 2.6 2.6 0.00 0.02 0.02 66 1099.0
20260502224309 43 13 2.6 5.2 0.00 0.02 0.02 67 1099.1
20260502223807 43 10 2.6 3.5 0.00 0.02 0.02 68 1098.7
20260502223305 43 4 1.7 5.2 0.00 0.02 0.02 67 1099.0
20260502222802 43 10 1.7 2.6 0.00 0.02 0.02 68 1098.9
20260502222300 43 10 2.6 2.6 0.00 0.02 0.02 67 1099.0
20260502221755 43 21 0.9 6.1 0.00 0.02 0.02 67 1099.1
20260502221252 43 346 4.3 6.1 0.00 0.02 0.02 68 1098.9
20260502220749 43 359 3.5 6.1 0.00 0.02 0.02 66 1098.9
20260502220244 43 347 1.7 2.6 0.00 0.02 0.02 68 1099.3
20260502215741 42 12 3.5 6.1 0.00 0.02 0.02 67 1099.1
20260502215239 42 356 1.7 2.6 0.00 0.02 0.02 68 1099.1
20260502214736 42 314 3.5 3.5 0.00 0.02 0.02 68 1099.0
20260502214234 42 8 2.6 5.2 0.00 0.02 0.02 68 1098.9